When you browse on this site, cookies collect data to enhance your experience and personalize the content and advertising you see.
Visit our Privacy Policy to learn more. By continuing to use the site, you agree to this use of cookies and data.
  • In Hungary
  • List of Countries
  • For 7 days
  • Water Temperature
  • Weather Map
  • News
  • Weather Widgets
  • user-avatar
    Login

    Hourly Weather Manzini

    Today, 21 November, Thursday

    Time Temperature Precipitation Wind Pressure Humidity
    00:00 +20°C° 0.1 mm 1 mps 705 mmHg 96%
    01:00 +18°C° 0.1 mm 0 mps 704 mmHg 96%
    02:00 +18°C° 0 mm 0 mps 704 mmHg 96%
    03:00 +18°C° 0.3 mm 0 mps 704 mmHg 97%
    04:00 +20°C° 0.3 mm 1 mps 704 mmHg 97%
    05:00 +19°C° 0.3 mm 1 mps 704 mmHg 98%
    06:00 +19°C° 0.4 mm 2 mps 704 mmHg 95%
    07:00 +20°C° 0.4 mm 2 mps 704 mmHg 93%
    08:00 +21°C° 0 mm 2 mps 704 mmHg 90%
    09:00 +23°C° 0 mm 2 mps 704 mmHg 86%
    10:00 +25°C° 0 mm 2 mps 704 mmHg 82%
    11:00 +26°C° 0 mm 2 mps 703 mmHg 77%
    12:00 +27°C° 0.3 mm 2 mps 703 mmHg 74%
    13:00 +28°C° 0.3 mm 2 mps 702 mmHg 71%
    14:00 +28°C° 0.3 mm 2 mps 702 mmHg 67%
    15:00 +29°C° 0.3 mm 2 mps 702 mmHg 68%
    16:00 +29°C° 0.3 mm 2 mps 702 mmHg 68%
    17:00 +29°C° 0.3 mm 2 mps 701 mmHg 68%
    18:00 +27°C° 0.3 mm 2 mps 702 mmHg 76%
    19:00 +25°C° 0.3 mm 1 mps 702 mmHg 84%
    20:00 +23°C° 0.3 mm 1 mps 702 mmHg 91%
    21:00 +23°C° 0.8 mm 1 mps 702 mmHg 93%
    22:00 +20°C° 0.8 mm 0 mps 703 mmHg 95%
    23:00 +20°C° 0.8 mm 0 mps 703 mmHg 97%

    Tomorrow, 22 November, Friday

    Time Temperature Precipitation Wind Pressure Humidity
    00:00 +20°C° 0.4 mm 0 mps 703 mmHg 97%
    01:00 +20°C° 0.4 mm 0 mps 703 mmHg 97%
    02:00 +20°C° 0.4 mm 0 mps 703 mmHg 98%
    03:00 +20°C° 0.1 mm 0 mps 703 mmHg 98%
    04:00 +20°C° 0.1 mm 0 mps 703 mmHg 98%
    05:00 +20°C° 0.1 mm 0 mps 703 mmHg 98%
    06:00 +21°C° 0 mm 0 mps 704 mmHg 94%
    07:00 +24°C° 0 mm 1 mps 704 mmHg 90%
    08:00 +25°C° 0 mm 1 mps 704 mmHg 86%
    09:00 +26°C° 0.1 mm 1 mps 704 mmHg 82%
    10:00 +26°C° 0.1 mm 2 mps 704 mmHg 78%
    11:00 +27°C° 0.1 mm 2 mps 704 mmHg 74%
    12:00 +27°C° 0.1 mm 2 mps 704 mmHg 74%
    13:00 +27°C° 0.1 mm 3 mps 703 mmHg 75%
    14:00 +27°C° 0.1 mm 3 mps 703 mmHg 75%
    15:00 +27°C° 0.1 mm 2 mps 702 mmHg 76%
    16:00 +27°C° 0.1 mm 2 mps 702 mmHg 77%
    17:00 +27°C° 0.1 mm 1 mps 702 mmHg 79%
    18:00 +26°C° 0 mm 1 mps 703 mmHg 84%
    19:00 +25°C° 0 mm 1 mps 703 mmHg 88%
    20:00 +24°C° 0 mm 1 mps 703 mmHg 93%
    21:00 +23°C° 0.2 mm 1 mps 704 mmHg 94%
    22:00 +23°C° 0.2 mm 1 mps 704 mmHg 94%
    23:00 +23°C° 0.2 mm 1 mps 704 mmHg 95%

    Day after tomorrow, 23 November, Saturday

    Time Temperature Precipitation Wind Pressure Humidity
    00:00 +23°C° 0.2 mm 1 mps 704 mmHg 95%
    01:00 +22°C° 0.2 mm 1 mps 703 mmHg 96%
    02:00 +22°C° 0.2 mm 1 mps 703 mmHg 97%
    03:00 +22°C° 0.1 mm 1 mps 703 mmHg 97%
    04:00 +22°C° 0.1 mm 1 mps 703 mmHg 97%
    05:00 +22°C° 0.1 mm 1 mps 703 mmHg 97%
    06:00 +24°C° 0 mm 1 mps 704 mmHg 91%
    07:00 +25°C° 0 mm 1 mps 704 mmHg 85%
    08:00 +26°C° 0 mm 1 mps 704 mmHg 79%
    09:00 +28°C° 0 mm 2 mps 704 mmHg 71%
    10:00 +30°C° 0 mm 2 mps 704 mmHg 62%
    11:00 +34°C° 0 mm 3 mps 704 mmHg 54%
    12:00 +34°C° 0 mm 3 mps 703 mmHg 52%
    13:00 +35°C° 0 mm 4 mps 702 mmHg 51%
    14:00 +36°C° 0 mm 5 mps 702 mmHg 49%
    15:00 +32°C° 3 mm 4 mps 701 mmHg 61%
    16:00 +27°C° 3 mm 4 mps 701 mmHg 72%
    17:00 +24°C° 3 mm 3 mps 701 mmHg 84%
    18:00 +24°C° 0.7 mm 3 mps 702 mmHg 83%
    19:00 +22°C° 0.7 mm 3 mps 703 mmHg 82%
    20:00 +22°C° 0.7 mm 3 mps 704 mmHg 81%
    21:00 +23°C° 0.1 mm 2 mps 704 mmHg 82%
    22:00 +22°C° 0.1 mm 1 mps 704 mmHg 84%
    23:00 +22°C° 0.1 mm 1 mps 705 mmHg 86%

    24 November, Sunday

    Time Temperature Precipitation Wind Pressure Humidity
    00:00 +22°C° 0.2 mm 1 mps 704 mmHg 88%
    01:00 +21°C° 0.2 mm 1 mps 704 mmHg 90%
    02:00 +19°C° 0.2 mm 0 mps 703 mmHg 92%
    03:00 +21°C° 0 mm 1 mps 704 mmHg 92%
    04:00 +21°C° 0 mm 1 mps 704 mmHg 92%
    05:00 +21°C° 0 mm 1 mps 704 mmHg 92%
    06:00 +23°C° 0 mm 1 mps 704 mmHg 85%
    07:00 +25°C° 0 mm 1 mps 705 mmHg 78%
    08:00 +27°C° 0 mm 1 mps 705 mmHg 71%
    09:00 +28°C° 0 mm 1 mps 705 mmHg 65%
    10:00 +30°C° 0 mm 2 mps 705 mmHg 59%
    11:00 +31°C° 0 mm 2 mps 705 mmHg 54%
    12:00 +31°C° 0.3 mm 2 mps 704 mmHg 57%
    13:00 +30°C° 0.3 mm 3 mps 703 mmHg 61%
    14:00 +30°C° 0.3 mm 3 mps 702 mmHg 64%
    15:00 +30°C° 0.3 mm 3 mps 702 mmHg 64%
    16:00 +30°C° 0.3 mm 3 mps 702 mmHg 65%
    17:00 +30°C° 0.3 mm 3 mps 701 mmHg 65%
    18:00 +28°C° 0.1 mm 3 mps 702 mmHg 72%
    19:00 +26°C° 0.1 mm 2 mps 702 mmHg 79%
    20:00 +24°C° 0.1 mm 2 mps 703 mmHg 86%
    21:00 +24°C° 0.1 mm 2 mps 703 mmHg 88%
    22:00 +23°C° 0.1 mm 1 mps 703 mmHg 89%
    23:00 +22°C° 0.1 mm 1 mps 704 mmHg 91%

    25 November, Monday

    Time Temperature Precipitation Wind Pressure Humidity
    00:00 +22°C° 0 mm 1 mps 704 mmHg 91%
    01:00 +22°C° 0 mm 1 mps 704 mmHg 92%
    02:00 +22°C° 0 mm 1 mps 704 mmHg 92%
    03:00 +22°C° 0 mm 1 mps 704 mmHg 92%
    04:00 +22°C° 0 mm 1 mps 704 mmHg 92%
    05:00 +22°C° 0 mm 1 mps 705 mmHg 92%
    06:00 +22°C° 0.1 mm 1 mps 705 mmHg 90%
    07:00 +20°C° 0.1 mm 2 mps 706 mmHg 89%
    08:00 +20°C° 0.1 mm 2 mps 706 mmHg 87%
    09:00 +21°C° 0 mm 2 mps 706 mmHg 82%
    10:00 +23°C° 0 mm 2 mps 706 mmHg 77%
    11:00 +25°C° 0 mm 2 mps 706 mmHg 72%
    12:00 +25°C° 0 mm 2 mps 705 mmHg 72%
    13:00 +25°C° 0 mm 3 mps 705 mmHg 71%
    14:00 +25°C° 0 mm 3 mps 705 mmHg 71%
    15:00 +24°C° 0 mm 3 mps 705 mmHg 75%
    16:00 +22°C° 0 mm 3 mps 704 mmHg 79%
    17:00 +22°C° 0 mm 3 mps 704 mmHg 83%
    18:00 +21°C° 0.2 mm 2 mps 705 mmHg 85%
    19:00 +20°C° 0.2 mm 2 mps 706 mmHg 87%
    20:00 +19°C° 0.2 mm 2 mps 706 mmHg 89%
    21:00 +19°C° 0.1 mm 2 mps 707 mmHg 88%
    22:00 +20°C° 0.1 mm 1 mps 707 mmHg 88%
    23:00 +20°C° 0.1 mm 1 mps 707 mmHg 88%

    26 November, Tuesday

    Time Temperature Precipitation Wind Pressure Humidity
    00:00 +19°C° 0 mm 1 mps 707 mmHg 88%
    01:00 +19°C° 0 mm 1 mps 707 mmHg 88%
    02:00 +17°C° 0 mm 0 mps 707 mmHg 88%
    03:00 +17°C° 0 mm 0 mps 707 mmHg 88%
    04:00 +16°C° 0 mm 0 mps 707 mmHg 89%
    05:00 +16°C° 0 mm 0 mps 707 mmHg 90%
    06:00 +18°C° 0 mm 0 mps 708 mmHg 82%
    07:00 +22°C° 0 mm 1 mps 709 mmHg 74%
    08:00 +24°C° 0 mm 1 mps 709 mmHg 66%
    09:00 +26°C° 0 mm 1 mps 709 mmHg 61%
    10:00 +27°C° 0 mm 2 mps 709 mmHg 56%
    11:00 +28°C° 0 mm 2 mps 709 mmHg 51%
    12:00 +29°C° 0 mm 3 mps 708 mmHg 49%
    13:00 +30°C° 0 mm 3 mps 707 mmHg 48%
    14:00 +30°C° 0 mm 4 mps 707 mmHg 47%
    15:00 +30°C° 0 mm 4 mps 706 mmHg 49%
    16:00 +29°C° 0 mm 4 mps 706 mmHg 52%
    17:00 +28°C° 0 mm 4 mps 706 mmHg 54%
    18:00 +26°C° 0 mm 3 mps 706 mmHg 63%
    19:00 +22°C° 0 mm 3 mps 706 mmHg 71%
    20:00 +20°C° 0 mm 2 mps 706 mmHg 79%
    21:00 +20°C° 0 mm 1 mps 707 mmHg 81%
    22:00 +19°C° 0 mm 1 mps 707 mmHg 83%
    23:00 +18°C° 0 mm 1 mps 707 mmHg 85%
    Show more